Flag for U.S.A. Weather past 2 weeks in Avalon (Santa Catalina Island), California, U.S.A.

Now
75 °F

Sunny.


Feels Like: 78 °F
Forecast: 71 / 82 °F
Wind: No wind

Location: Catalina Airport

Current Time: Aug 30, 2014 at 9:49:22 AM

Latest Report: Aug 30, 2014 at 8:51 AM


Visibility: 10 mi

Pressure: 29.80 "Hg

Humidity: 55%

Dew point: 58 °F

Location of Avalon (Santa Catalina Island)Location

Historic Weather in Avalon (Santa Catalina Island) — Graph

°F

Avalon (Santa Catalina Island) temperature yesterday

Maximum temperature yesterday: 78 °F (at 12:51 AM)
Minimum temperature yesterday: 66 °F (at 7:51 PM)
Average temperature yesterday: 73 °F

Past Weeks' High & Low Weather Summary

 TemperatureHumidityPressure
High85 °F (Aug 27, 2:51 PM)97% (Aug 19, 3:51 AM)30.03 "Hg (Aug 19, 3:51 AM)
Low57 °F (Aug 23, 3:53 AM)8% (Aug 26, 8:51 PM)29.78 "Hg (Aug 30, 1:51 AM)
Average69 °F61%29.91 "Hg
* Reported Aug 15 7:51 AM — Aug 30 7:51 AM, Avalon (Santa Catalina Island), Weather by CustomWeather, © 2014

Note: Actual official high and low records may vary slightly from our data, if they occured in-between our weather recording intervals... More about our weather records

Advertising

Avalon (Santa Catalina Island) weather history for previous 24 hours

 ConditionsComfort  
Time TempWeatherWind HumidityBarometerVisibility
7:51 AM
Aug 30
75 °FSunny.No wind34%29.80 "Hg10 mi
6:51 AM73 °FClear.3 mph37%29.79 "Hg10 mi
5:51 AM71 °FClear.5 mph36%29.78 "Hg10 mi
4:51 AM67 °FClear.5 mph55%29.78 "Hg10 mi
3:51 AM67 °FClear.6 mph55%29.78 "Hg10 mi
2:51 AM69 °FClear.6 mph49%29.78 "Hg10 mi
1:51 AM69 °FClear.3 mph49%29.78 "Hg10 mi
12:51 AM71 °FClear.5 mph45%29.79 "Hg10 mi
11:51 PM
Aug 29
72 °FClear.7 mph31%29.79 "Hg10 mi
10:51 PM72 °FClear.6 mph37%29.80 "Hg10 mi
9:51 PM73 °FClear.8 mph26%29.81 "Hg10 mi
8:51 PM73 °FClear.9 mph21%29.81 "Hg10 mi
7:51 PM66 °FSunny.5 mph75%29.81 "Hg10 mi
6:51 PM70 °FSunny.7 mph64%29.79 "Hg10 mi
5:51 PM70 °FSunny.7 mph64%29.80 "Hg10 mi
4:51 PM71 °FSunny.8 mph66%29.79 "Hg10 mi
3:51 PM70 °FSunny.13 mph68%29.80 "Hg10 mi
2:51 PM72 °FSunny.10 mph64%29.81 "Hg10 mi
1:51 PM77 °FSunny.9 mph54%29.82 "Hg10 mi
11:51 AM78 °FSunny.5 mph54%29.84 "Hg10 mi
10:51 AM75 °FSunny.5 mph60%29.86 "Hg10 mi
9:51 AM75 °FSunny.3 mph60%29.86 "Hg10 mi
Weather by CustomWeather, © 2014

See weather overviewHow to use our weather pages